Flag for Russia Weather past 2 weeks in Saratov, Russia

Now
54 °F

Clear.


Feels Like: 53 °F
Forecast: 47 / 65 °F
Wind: 3 mph from North

Location: Saratov / Tsentralny

Current Time: Sep 21, 2014 at 12:20:15 AM

Latest Report: Sep 20, 2014 at 11:30 PM


Visibility: 10 mi

Pressure: 30.24 "Hg

Humidity: 51%

Dew point: 36 °F

Location of SaratovLocation

Historic Weather in Saratov — Graph

°F

Saratov temperature yesterday

Maximum temperature yesterday: 64 °F (at 3:00 PM)
Minimum temperature yesterday: 43 °F (at 6:00 AM)
Average temperature yesterday: 54 °F

Past Weeks' High & Low Weather Summary

 TemperatureHumidityPressure
High75 °F (Sep 6, 4:00 PM)94% (Sep 13, 4:00 AM)30.86 "Hg (Sep 13, 4:00 AM)
Low37 °F (Sep 18, 6:00 AM)26% (Sep 10, 4:00 PM)29.98 "Hg (Sep 16, 4:00 PM)
Average59 °F57%30.19 "Hg
* Reported Sep 5 11:00 PM — Sep 20 11:00 PM, Saratov, Weather by CustomWeather, © 2014

Note: Actual official high and low records may vary slightly from our data, if they occured in-between our weather recording intervals... More about our weather records

Advertising

Saratov weather history for previous 24 hours

 ConditionsComfort  
Time TempWeatherWind HumidityBarometerVisibility
11:00 PM
Sep 20
54 °FClear.3 mph51%30.24 "Hg10 mi
10:30 PM55 °FClear.3 mph38%30.24 "Hg10 mi
10:00 PM55 °FClear.3 mph38%30.24 "Hg10 mi
9:30 PM57 °FClear.3 mph39%30.24 "Hg10 mi
5:30 PM64 °FSunny.6 mph30%30.86 "Hg10 mi
5:00 PM64 °FSunny.6 mph30%30.24 "Hg10 mi
4:30 PM64 °FSunny.8 mph30%30.27 "Hg10 mi
4:00 PM64 °FSunny.3 mph30%30.27 "Hg10 mi
3:30 PM64 °FSunny.6 mph30%30.27 "Hg10 mi
3:00 PM64 °FSunny.8 mph30%30.27 "Hg10 mi
2:30 PM63 °FSunny.N/A37%30.30 "Hg10 mi
2:00 PM63 °FSunny.10 mph37%30.30 "Hg10 mi
1:30 PM63 °FSunny.6 mph34%30.33 "Hg10 mi
1:00 PM63 °FSunny.8 mph34%30.33 "Hg10 mi
12:30 PM61 °FSunny.6 mph39%30.33 "Hg10 mi
12:00 PM61 °FSunny.6 mph39%30.33 "Hg10 mi
11:30 AM59 °FSunny.6 mph48%30.33 "Hg10 mi
11:00 AM59 °FSunny.8 mph48%30.33 "Hg10 mi
10:30 AM55 °FSunny.6 mph51%30.36 "Hg10 mi
10:00 AM55 °FSunny.3 mph51%30.36 "Hg10 mi
9:30 AM52 °FSunny.3 mph72%30.36 "Hg10 mi
9:00 AM52 °FSunny.1 mph72%30.36 "Hg10 mi
8:30 AM46 °FSunny.No wind76%30.36 "Hg10 mi
8:00 AM46 °FSunny.No wind76%30.36 "Hg10 mi
7:30 AM43 °FClear.No wind76%30.36 "Hg10 mi
7:00 AM43 °FClear.No wind76%30.36 "Hg10 mi
6:30 AM43 °FClear.No wind81%30.36 "Hg10 mi
6:00 AM43 °FClear.No wind81%30.36 "Hg10 mi
5:00 AM45 °FClear.No wind87%30.36 "Hg10 mi
4:30 AM45 °FClear.No wind87%30.36 "Hg10 mi
4:00 AM45 °FClear.No wind87%30.36 "Hg10 mi
3:30 AM46 °FClear.No wind76%30.36 "Hg10 mi
3:00 AM46 °FClear.No wind76%30.36 "Hg10 mi
2:30 AM50 °FClear.No wind50%30.39 "Hg10 mi
2:00 AM50 °FClear.1 mph50%30.39 "Hg10 mi
1:30 AM50 °FClear.3 mph50%30.39 "Hg10 mi
12:30 AM52 °FClear.3 mph47%30.39 "Hg10 mi
12:00 AM52 °FClear.3 mph47%30.39 "Hg10 mi
Weather by CustomWeather, © 2014

See weather overviewHow to use our weather pages